Location: Clanezzo
(45.7500°N, 9.6000°E)
Time: 02:41:37
(UTC+00:00)

Cosmos 2344 - Pass Details

Date: 12 May 2021
Orbit: 1239 x 3003 km, 63.3° (Epoch: 18 June)

Event Time Altitude Azimuth Distance (km) Brightness Sun altitude
Rises 23:18:15 0° 320° (NW) 4,544 7.2 -25.9°
Reaches altitude 10° 23:20:51 10° 321° (NW) 3,700 6.6 -25.9°
Maximum altitude 23:30:11 88° 51° (NE) 1,894 4.3 -25.8°
Enters shadow 23:39:43 21° 143° (SE) 3,998 5.7 -25.7°
